SCP
0 0 0 0 0 0 0 0 0 0 0 0 -0 -0 0 0 0 0 -0 -0 -0 0 0 0 0 0 0 0 0 0 0 0 0 0 0 0 -0 0 0 0 0 0 0
0 0 0 0 -0 -0 -0 -0 -0 -0 0 0 0 0 0 0 0 0 0 0 -0 0 0 0 0 0 0 0 0 0 0 0 0 0 0 0 0 0 0 0 0 0 0
-0 0 0 0 0 -0 0 0 -0 -0 -0 -0 0 0 0 0 0 0 0 0 0 0 0 0 0 0 0 0 0 0 0 0 0 0 0 0 0 0 0 0 0 0 0
-0 -0 -0 0 -0 -0 -0 -0 0 -0 0 0 0 0 0 0 0 0 -0 -0 0 0 0 0 0 0 0 0 0 0 0 0 0 0 0 0 0 0 0 0 0 0 0
0 -0 -0 -0 -0 -0 0 0 0 0 0 0 0 0 0 0 0 0 0 -0 0 0 -0 0 0 0 0 0 0 0 0 0 0 0 0 0 0 0 0 0 0 0 0
0 0 0 -0 -0 -0 -0 0 0 -0 -0 -0 0 0 0 0 0 0 0 0 0 0 0 0 0 0 0 0 0 0 0 0 0 0 0 0 0 0 0 0 0 -0 0
0 0 0 -0 -0 -0 -1 -0 -0 -0 -0 -0 -0 0 0 0 0 0 0 0 0 0 0 0 0 0 0 0 0 0 0 0 0 0 0 0 0 0 0 0 0 0 0
0 -0 -0 -0 -1 -1 -1 -0 -1 -1 -1 -0 -0 0 0 0 0 0 0 0 0 0 0 0 1 1 1 0 0 1 0 0 0 0 0 0 0 0 0 0 0 0 0
0 -0 -0 0 0 0 0 0 0 -1 -1 -1 -0 -0 0 1 1 1 0 0 0 0 0 0 0 0 1 1 0 0 1 0 0 0 0 0 0 0 0 0 0 0 0
-0 -0 0 0 0 0 1 1 0 0 -0 -1 -0 0 0 1 1 1 2 1 1 1 1 0 0 0 0 -0 1 1 1 0 0 0 0 0 0 0 0 0 0 0 0
0 0 0 0 0 1 1 1 -0 0 0 0 0 0 1 2 2 1 1 1 1 1 0 0 0 -0 0 0 0 0 1 0 0 0 0 0 0 0 0 0 0 0 0
0 -0 0 0 0 0 0 0 0 0 0 0 -0 0 1 1 2 2 1 1 1 1 0 0 0 0 -0 0 0 0 0 0 0 0 0 0 0 0 0 0 0 0 0
0 0 -0 0 0 0 0 -0 -0 0 0 0 0 0 1 2 3 3 2 2 1 0 1 0 0 0 0 0 0 0 -0 0 0 0 0 1 1 0 0 1 0 0 0
1 0 0 -0 0 0 0 -0 -0 0 -0 -0 0 1 1 2 3 3 2 2 1 0 0 0 0 0 0 -0 0 0 0 0 0 0 0 1 1 1 0 0 0 0 0
2 1 1 -0 -0 -0 -0 -0 -0 -0 0 1 1 1 1 1 2 2 2 1 0 0 0 0 0 0 0 0 0 -0 0 0 0 0 0 1 1 0 1 1 0 0 0
2 2 1 1 -0 -0 0 1 1 1 1 2 2 3 2 1 1 1 1 0 0 0 0 0 0 0 0 0 0 0 0 -0 0 0 0 1 1 0 0 0 0 0 0
1 1 1 1 1 0 0 0 0 1 2 2 3 2 2 1 1 1 1 1 1 1 0 0 0 0 0 0 0 0 0 0 0 0 0 0 0 0 0 0 0 -0 0
2 2 1 1 1 1 1 1 1 1 1 1 2 2 2 2 1 1 1 1 1 0 0 0 0 0 0 0 0 -0 0 0 0 0 0 0 0 0 0 0 0 0 0
2 2 1 0 0 1 1 2 2 2 2 2 2 1 1 1 1 1 0 0 0 0 0 0 0 0 0 0 -0 0 0 0 0 0 0 0 0 0 -0 0 0 0 0
1 1 0 0 0 0 0 0 1 0 0 1 0 0 1 1 1 1 1 1 1 0 0 0 0 0 0 0 0 0 0 0 0 -0 -0 -0 -0 -0 -0 -0 0 0 -0
0 0 0 0 0 0 0 0 0 0 0 0 0 0 0 0 0 0 1 1 1 1 1 0 0 0 0 0 0 0 0 0 0 0 0 0 0 0 -0 -0 0 0 0
0 0 0 0 0 0 0 0 0 0 0 0 0 0 0 0 0 0 0 0 0 1 1 1 1 1 0 0 0 0 0 0 0 0 0 0 0 0 -0 0 -0 0 0
0 0 0 0 0 0 0 0 0 0 0 0 0 0 0 0 0 0 0 0 0 0 1 2 2 2 1 2 1 1 0 0 0 0 0 0 0 0 0 0 -0 0 0
0 0 0 0 0 0 0 0 0 0 0 0 0 0 0 0 0 0 0 0 0 0 0 0 0 1 1 1 1 1 1 0 0 0 0 0 0 0 0 0 0 0 0
0 0 0 0 0 0 0 0 0 0 0 0 0 0 0 0 0 0 0 0 0 0 0 0 0 0 0 0 1 0 0 0 0 0 0 0 0 0 0 0 0 0 0
0 0 0 0 0 0 0 0 0 0 0 0 0 0 0 0 0 0 0 0 0 0 0 0 0 0 0 0 0 0 0 0 0 0 1 1 1 1 1 0 0 0 0
Wind_Speed_500mb
62 59 51 50 44 48 50 44 35 31 29 34 54 46 34 27 28 24 16 17 14 14 17 34 30 28 29 28 31 32 33 36 36 34 26 27 29 36 36 34 32 34 33
68 63 59 54 52 49 50 45 38 35 34 31 34 52 36 33 27 22 21 19 18 17 24 25 35 34 30 37 37 39 37 38 38 36 28 22 19 25 27 28 29 30 30
76 71 66 64 58 58 56 52 45 40 40 34 30 45 44 37 37 34 28 28 21 15 17 22 24 30 34 33 31 31 30 31 32 32 26 13 9 14 18 25 25 28 32
77 75 72 71 69 65 61 57 49 44 46 41 38 45 53 48 46 38 26 26 24 17 14 14 19 27 28 31 27 25 24 25 26 28 31 36 36 19 17 20 26 27 31
67 80 81 77 72 67 66 61 50 46 47 47 43 45 51 46 40 37 43 33 30 28 22 20 20 24 27 23 27 28 29 28 25 28 28 29 31 34 40 43 33 30 34
31 32 53 73 78 70 67 64 57 46 46 47 46 49 48 44 44 44 41 41 38 39 38 33 31 27 26 27 28 30 33 33 31 29 30 33 32 29 30 33 40 49 39
43 66 52 77 85 82 76 71 63 55 48 52 52 52 49 45 46 49 45 44 44 43 42 43 41 36 33 34 34 35 37 39 38 34 35 35 37 33 34 29 30 42 46
33 56 77 97 98 79 79 71 71 62 54 51 57 55 53 51 50 52 48 47 47 48 39 35 40 44 42 42 36 40 41 41 42 40 36 37 41 36 33 34 31 43 43
41 59 82 57 46 36 44 56 74 72 61 51 47 57 57 59 57 55 58 57 50 49 47 42 40 46 49 50 44 41 39 33 40 42 35 36 34 34 32 32 28 31 41
7 60 62 46 54 46 36 27 39 56 74 51 54 53 53 54 54 60 61 61 54 58 52 48 47 37 44 56 45 40 35 36 36 38 34 33 35 32 30 30 28 30 32
28 23 54 50 60 57 37 44 56 73 61 69 64 59 52 48 38 46 52 58 60 57 48 49 46 64 58 47 47 41 39 40 39 35 37 36 31 33 30 31 33 32 33
35 30 54 48 52 30 23 48 63 68 55 55 75 54 41 30 31 31 29 28 32 35 55 48 40 47 40 32 26 41 45 46 49 42 43 41 37 37 35 35 35 33 31
43 36 35 41 38 43 44 64 43 37 52 53 62 44 43 35 28 28 30 26 26 28 30 36 29 15 9 17 23 42 37 42 44 42 42 41 43 40 33 33 35 35 36
38 44 36 34 27 10 49 58 70 55 41 40 47 46 44 36 31 28 31 32 30 34 33 32 26 22 28 23 26 36 34 33 42 49 50 42 39 38 33 33 34 35 37
53 39 33 26 17 17 14 20 31 18 19 25 30 31 27 25 25 29 32 35 39 41 41 38 33 30 33 37 46 42 46 44 49 54 55 48 40 33 32 33 36 35 37
35 29 20 22 33 25 26 27 24 23 18 21 23 22 24 25 28 30 33 38 36 29 31 39 40 43 44 44 47 53 50 44 47 49 48 47 34 30 28 29 32 30 34
31 24 16 9 4 8 10 15 14 10 10 8 11 12 15 19 28 35 36 32 36 36 37 42 42 42 43 44 39 31 33 41 49 52 44 45 38 34 26 22 27 26 29
24 18 16 24 19 10 6 6 7 7 8 7 11 13 18 22 22 26 28 31 34 42 45 40 32 34 31 25 18 6 17 23 23 35 39 34 28 30 30 27 26 27 31
28 29 25 22 16 11 18 19 19 17 13 10 12 15 22 20 19 17 21 24 32 35 34 40 43 37 23 24 22 25 32 36 37 36 26 24 30 32 28 29 32 32 31
26 20 12 9 9 14 17 19 16 14 13 11 13 14 17 19 22 27 26 31 36 36 35 41 43 42 41 37 40 39 37 41 37 19 29 33 35 23 48 34 22 24 32
23 19 11 5 4 5 5 8 14 17 17 18 23 26 29 32 34 37 35 38 43 44 44 47 43 48 54 55 50 46 44 40 41 38 27 26 26 15 22 22 26 25 30
19 14 11 8 12 18 23 23 25 29 34 41 46 47 48 49 49 49 48 46 49 53 55 54 56 59 59 59 57 54 51 47 50 46 43 37 28 22 19 21 23 29 36
21 18 17 18 18 22 27 35 42 45 50 54 55 57 58 57 55 54 53 54 52 52 58 63 67 71 72 69 64 62 62 58 60 57 55 50 45 35 25 21 27 30 30
27 22 17 15 18 25 35 40 46 49 50 54 57 58 59 61 62 64 63 58 52 50 46 48 60 67 74 73 73 69 64 62 67 64 65 65 66 54 42 31 27 37 36
9 10 19 28 34 35 41 44 47 49 53 56 58 57 55 53 56 55 56 59 60 56 56 57 56 58 64 60 68 66 61 60 60 66 69 70 68 70 57 43 35 34 41
20 20 22 26 30 36 38 39 43 46 50 55 59 61 62 63 61 60 60 53 56 57 62 73 72 69 67 68 66 65 66 71 61 65 62 58 59 69 62 52 42 45 49
Wind_Direction_500mb
193 190 191 196 198 201 200 205 206 200 198 194 192 197 197 192 196 202 214 235 231 210 225 214 222 223 223 229 240 251 262 268 277 275 279 265 268 266 268 269 264 262 263
191 194 196 203 207 207 209 216 221 219 217 205 199 205 203 203 212 209 225 233 235 235 227 222 230 239 239 241 247 247 258 265 270 270 276 283 275 265 262 261 265 268 269
194 195 198 205 211 214 216 218 222 233 225 215 205 203 203 206 213 220 224 229 240 249 240 230 236 235 240 241 242 244 253 264 266 261 253 271 262 300 281 271 271 271 267
200 201 200 205 212 215 219 224 228 232 225 218 216 205 199 196 210 218 225 231 239 240 238 247 248 239 236 235 236 240 253 256 265 266 263 256 263 285 295 286 289 290 284
206 205 207 209 213 215 217 223 230 229 223 220 218 210 205 209 224 231 235 239 241 243 245 259 254 250 247 247 245 245 254 257 259 266 266 264 262 265 263 282 296 295 301
203 236 234 224 217 215 219 220 222 226 223 221 219 217 215 215 221 232 238 240 243 246 248 252 259 256 253 250 250 253 255 259 262 263 263 262 260 265 266 280 304 297 295
214 266 231 233 223 221 219 220 220 224 226 224 225 224 225 221 222 226 235 243 247 254 252 244 254 256 249 260 257 258 259 258 261 263 271 271 269 268 272 279 280 286 302
233 238 223 224 220 223 224 224 226 225 225 227 231 234 234 229 225 225 233 237 249 252 270 253 254 258 270 253 253 260 264 263 262 266 270 274 274 274 278 278 286 288 295
234 223 215 215 205 208 213 235 236 232 228 229 234 236 236 236 236 235 235 241 248 249 264 255 266 270 273 263 250 257 264 266 265 264 269 267 274 273 270 282 283 282 284
216 232 221 211 187 193 181 244 288 240 239 231 236 240 245 243 245 246 245 245 253 256 265 264 251 283 266 255 253 257 268 273 275 274 275 270 275 276 275 279 280 280 276
62 163 177 177 181 189 223 260 300 278 247 242 245 244 247 255 253 251 255 258 259 260 263 267 277 314 265 240 250 264 275 270 269 271 277 276 274 275 274 270 279 279 279
88 112 183 185 187 241 213 206 241 178 225 247 250 250 248 250 243 251 263 273 269 269 255 268 294 320 222 256 271 272 271 270 267 263 260 262 269 271 273 278 281 281 278
121 131 159 194 206 207 216 193 217 221 232 241 249 248 249 252 265 273 267 269 272 269 259 262 281 295 235 295 296 288 259 256 269 268 269 269 263 264 266 276 277 274 276
133 129 134 142 138 172 215 227 231 250 243 235 235 243 252 260 271 273 268 274 273 268 264 272 273 262 277 257 279 273 269 268 271 268 264 268 263 263 260 262 270 269 270
139 138 136 131 133 170 199 202 199 194 207 231 212 224 246 265 269 273 271 281 280 266 248 261 275 280 288 262 257 269 277 277 270 265 270 268 264 256 257 266 260 263 268
142 142 137 139 145 136 159 175 190 204 214 191 209 228 229 241 255 267 264 268 270 275 255 255 271 277 275 269 270 271 278 278 279 278 277 275 262 253 248 267 262 266 269
143 146 148 170 128 92 94 179 209 216 206 222 234 260 268 273 264 261 269 266 262 266 269 275 275 270 265 264 264 267 279 288 282 281 280 258 254 249 259 255 266 264 276
147 134 158 178 188 197 139 161 201 217 242 266 293 299 297 308 292 264 261 265 273 273 274 276 274 270 260 246 223 221 316 330 330 290 269 267 260 264 270 277 278 275 275
142 133 141 154 161 203 195 207 202 224 244 260 262 281 296 314 313 304 291 290 289 282 269 272 277 259 256 231 230 268 295 299 305 322 246 254 280 275 294 282 274 272 273
133 134 137 140 142 159 173 189 202 220 247 244 248 269 275 275 279 285 284 285 287 290 283 279 271 254 259 261 262 272 287 295 300 290 263 264 296 307 293 284 282 287 313
143 137 163 227 351 341 322 307 314 321 317 305 294 289 286 286 284 278 276 276 277 275 275 279 275 268 263 266 266 267 275 284 299 293 283 291 298 289 268 286 293 308 290
172 191 207 231 270 296 309 319 318 312 306 303 301 299 299 299 295 290 284 277 273 271 274 273 271 270 270 272 270 268 269 273 280 278 285 286 293 302 317 325 311 280 269
188 213 231 236 256 276 291 302 305 303 301 302 301 299 299 299 299 297 294 292 287 280 275 273 272 274 276 274 273 275 275 274 273 273 270 274 278 273 282 298 309 309 298
177 185 202 230 267 292 302 301 300 300 301 306 308 307 305 302 299 296 295 295 290 288 288 285 281 279 273 273 274 275 276 272 268 270 271 269 268 265 262 268 288 302 303
205 271 292 300 302 305 307 308 308 310 309 307 305 304 302 303 303 299 295 291 284 283 287 288 288 286 281 275 273 276 280 274 268 270 272 269 268 257 257 264 277 290 301
290 298 297 294 294 294 295 299 301 301 300 300 300 299 298 298 298 297 294 296 296 287 279 272 272 274 279 279 279 278 272 266 268 273 276 276 270 259 254 260 268 291 301
Wind_Speed_850mb
62 59 51 50 44 48 50 44 35 31 29 34 54 46 34 27 28 24 16 17 14 14 17 34 30 28 29 28 31 32 33 36 36 34 26 27 29 36 36 34 32 34 33
68 63 59 54 52 49 50 45 38 35 34 31 34 52 36 33 27 22 21 19 18 17 24 25 35 34 30 37 37 39 37 38 38 36 28 22 19 25 27 28 29 30 30
76 71 66 64 58 58 56 52 45 40 40 34 30 45 44 37 37 34 28 28 21 15 17 22 24 30 34 33 31 31 30 31 32 32 26 13 9 14 18 25 25 28 32
77 75 72 71 69 65 61 57 49 44 46 41 38 45 53 48 46 38 26 26 24 17 14 14 19 27 28 31 27 25 24 25 26 28 31 36 36 19 17 20 26 27 31
67 80 81 77 72 67 66 61 50 46 47 47 43 45 51 46 40 37 43 33 30 28 22 20 20 24 27 23 27 28 29 28 25 28 28 29 31 34 40 43 33 30 34
31 32 53 73 78 70 67 64 57 46 46 47 46 49 48 44 44 44 41 41 38 39 38 33 31 27 26 27 28 30 33 33 31 29 30 33 32 29 30 33 40 49 39
43 66 52 77 85 82 76 71 63 55 48 52 52 52 49 45 46 49 45 44 44 43 42 43 41 36 33 34 34 35 37 39 38 34 35 35 37 33 34 29 30 42 46
33 56 77 97 98 79 79 71 71 62 54 51 57 55 53 51 50 52 48 47 47 48 39 35 40 44 42 42 36 40 41 41 42 40 36 37 41 36 33 34 31 43 43
41 59 82 57 46 36 44 56 74 72 61 51 47 57 57 59 57 55 58 57 50 49 47 42 40 46 49 50 44 41 39 33 40 42 35 36 34 34 32 32 28 31 41
7 60 62 46 54 46 36 27 39 56 74 51 54 53 53 54 54 60 61 61 54 58 52 48 47 37 44 56 45 40 35 36 36 38 34 33 35 32 30 30 28 30 32
28 23 54 50 60 57 37 44 56 73 61 69 64 59 52 48 38 46 52 58 60 57 48 49 46 64 58 47 47 41 39 40 39 35 37 36 31 33 30 31 33 32 33
35 30 54 48 52 30 23 48 63 68 55 55 75 54 41 30 31 31 29 28 32 35 55 48 40 47 40 32 26 41 45 46 49 42 43 41 37 37 35 35 35 33 31
43 36 35 41 38 43 44 64 43 37 52 53 62 44 43 35 28 28 30 26 26 28 30 36 29 15 9 17 23 42 37 42 44 42 42 41 43 40 33 33 35 35 36
38 44 36 34 27 10 49 58 70 55 41 40 47 46 44 36 31 28 31 32 30 34 33 32 26 22 28 23 26 36 34 33 42 49 50 42 39 38 33 33 34 35 37
53 39 33 26 17 17 14 20 31 18 19 25 30 31 27 25 25 29 32 35 39 41 41 38 33 30 33 37 46 42 46 44 49 54 55 48 40 33 32 33 36 35 37
35 29 20 22 33 25 26 27 24 23 18 21 23 22 24 25 28 30 33 38 36 29 31 39 40 43 44 44 47 53 50 44 47 49 48 47 34 30 28 29 32 30 34
31 24 16 9 4 8 10 15 14 10 10 8 11 12 15 19 28 35 36 32 36 36 37 42 42 42 43 44 39 31 33 41 49 52 44 45 38 34 26 22 27 26 29
24 18 16 24 19 10 6 6 7 7 8 7 11 13 18 22 22 26 28 31 34 42 45 40 32 34 31 25 18 6 17 23 23 35 39 34 28 30 30 27 26 27 31
28 29 25 22 16 11 18 19 19 17 13 10 12 15 22 20 19 17 21 24 32 35 34 40 43 37 23 24 22 25 32 36 37 36 26 24 30 32 28 29 32 32 31
26 20 12 9 9 14 17 19 16 14 13 11 13 14 17 19 22 27 26 31 36 36 35 41 43 42 41 37 40 39 37 41 37 19 29 33 35 23 48 34 22 24 32
23 19 11 5 4 5 5 8 14 17 17 18 23 26 29 32 34 37 35 38 43 44 44 47 43 48 54 55 50 46 44 40 41 38 27 26 26 15 22 22 26 25 30
19 14 11 8 12 18 23 23 25 29 34 41 46 47 48 49 49 49 48 46 49 53 55 54 56 59 59 59 57 54 51 47 50 46 43 37 28 22 19 21 23 29 36
21 18 17 18 18 22 27 35 42 45 50 54 55 57 58 57 55 54 53 54 52 52 58 63 67 71 72 69 64 62 62 58 60 57 55 50 45 35 25 21 27 30 30
27 22 17 15 18 25 35 40 46 49 50 54 57 58 59 61 62 64 63 58 52 50 46 48 60 67 74 73 73 69 64 62 67 64 65 65 66 54 42 31 27 37 36
9 10 19 28 34 35 41 44 47 49 53 56 58 57 55 53 56 55 56 59 60 56 56 57 56 58 64 60 68 66 61 60 60 66 69 70 68 70 57 43 35 34 41
20 20 22 26 30 36 38 39 43 46 50 55 59 61 62 63 61 60 60 53 56 57 62 73 72 69 67 68 66 65 66 71 61 65 62 58 59 69 62 52 42 45 49
Wind_Direction_850mb
193 190 191 196 198 201 200 205 206 200 198 194 192 197 197 192 196 202 214 235 231 210 225 214 222 223 223 229 240 251 262 268 277 275 279 265 268 266 268 269 264 262 263
191 194 196 203 207 207 209 216 221 219 217 205 199 205 203 203 212 209 225 233 235 235 227 222 230 239 239 241 247 247 258 265 270 270 276 283 275 265 262 261 265 268 269
194 195 198 205 211 214 216 218 222 233 225 215 205 203 203 206 213 220 224 229 240 249 240 230 236 235 240 241 242 244 253 264 266 261 253 271 262 300 281 271 271 271 267
200 201 200 205 212 215 219 224 228 232 225 218 216 205 199 196 210 218 225 231 239 240 238 247 248 239 236 235 236 240 253 256 265 266 263 256 263 285 295 286 289 290 284
206 205 207 209 213 215 217 223 230 229 223 220 218 210 205 209 224 231 235 239 241 243 245 259 254 250 247 247 245 245 254 257 259 266 266 264 262 265 263 282 296 295 301
203 236 234 224 217 215 219 220 222 226 223 221 219 217 215 215 221 232 238 240 243 246 248 252 259 256 253 250 250 253 255 259 262 263 263 262 260 265 266 280 304 297 295
214 266 231 233 223 221 219 220 220 224 226 224 225 224 225 221 222 226 235 243 247 254 252 244 254 256 249 260 257 258 259 258 261 263 271 271 269 268 272 279 280 286 302
233 238 223 224 220 223 224 224 226 225 225 227 231 234 234 229 225 225 233 237 249 252 270 253 254 258 270 253 253 260 264 263 262 266 270 274 274 274 278 278 286 288 295
234 223 215 215 205 208 213 235 236 232 228 229 234 236 236 236 236 235 235 241 248 249 264 255 266 270 273 263 250 257 264 266 265 264 269 267 274 273 270 282 283 282 284
216 232 221 211 187 193 181 244 288 240 239 231 236 240 245 243 245 246 245 245 253 256 265 264 251 283 266 255 253 257 268 273 275 274 275 270 275 276 275 279 280 280 276
62 163 177 177 181 189 223 260 300 278 247 242 245 244 247 255 253 251 255 258 259 260 263 267 277 314 265 240 250 264 275 270 269 271 277 276 274 275 274 270 279 279 279
88 112 183 185 187 241 213 206 241 178 225 247 250 250 248 250 243 251 263 273 269 269 255 268 294 320 222 256 271 272 271 270 267 263 260 262 269 271 273 278 281 281 278
121 131 159 194 206 207 216 193 217 221 232 241 249 248 249 252 265 273 267 269 272 269 259 262 281 295 235 295 296 288 259 256 269 268 269 269 263 264 266 276 277 274 276
133 129 134 142 138 172 215 227 231 250 243 235 235 243 252 260 271 273 268 274 273 268 264 272 273 262 277 257 279 273 269 268 271 268 264 268 263 263 260 262 270 269 270
139 138 136 131 133 170 199 202 199 194 207 231 212 224 246 265 269 273 271 281 280 266 248 261 275 280 288 262 257 269 277 277 270 265 270 268 264 256 257 266 260 263 268
142 142 137 139 145 136 159 175 190 204 214 191 209 228 229 241 255 267 264 268 270 275 255 255 271 277 275 269 270 271 278 278 279 278 277 275 262 253 248 267 262 266 269
143 146 148 170 128 92 94 179 209 216 206 222 234 260 268 273 264 261 269 266 262 266 269 275 275 270 265 264 264 267 279 288 282 281 280 258 254 249 259 255 266 264 276
147 134 158 178 188 197 139 161 201 217 242 266 293 299 297 308 292 264 261 265 273 273 274 276 274 270 260 246 223 221 316 330 330 290 269 267 260 264 270 277 278 275 275
142 133 141 154 161 203 195 207 202 224 244 260 262 281 296 314 313 304 291 290 289 282 269 272 277 259 256 231 230 268 295 299 305 322 246 254 280 275 294 282 274 272 273
133 134 137 140 142 159 173 189 202 220 247 244 248 269 275 275 279 285 284 285 287 290 283 279 271 254 259 261 262 272 287 295 300 290 263 264 296 307 293 284 282 287 313
143 137 163 227 351 341 322 307 314 321 317 305 294 289 286 286 284 278 276 276 277 275 275 279 275 268 263 266 266 267 275 284 299 293 283 291 298 289 268 286 293 308 290
172 191 207 231 270 296 309 319 318 312 306 303 301 299 299 299 295 290 284 277 273 271 274 273 271 270 270 272 270 268 269 273 280 278 285 286 293 302 317 325 311 280 269
188 213 231 236 256 276 291 302 305 303 301 302 301 299 299 299 299 297 294 292 287 280 275 273 272 274 276 274 273 275 275 274 273 273 270 274 278 273 282 298 309 309 298
177 185 202 230 267 292 302 301 300 300 301 306 308 307 305 302 299 296 295 295 290 288 288 285 281 279 273 273 274 275 276 272 268 270 271 269 268 265 262 268 288 302 303
205 271 292 300 302 305 307 308 308 310 309 307 305 304 302 303 303 299 295 291 284 283 287 288 288 286 281 275 273 276 280 274 268 270 272 269 268 257 257 264 277 290 301
290 298 297 294 294 294 295 299 301 301 300 300 300 299 298 298 298 297 294 296 296 287 279 272 272 274 279 279 279 278 272 266 268 273 276 276 270 259 254 260 268 291 301